Flag for Brazil Weather past 2 weeks in Porto Alegre, Rio Grande do Sul, Brazil

Now
82 °F

Sunny.


Feels Like: 85 °F
Forecast: 54 / 83 °F
Wind: 6 mph from East

Location: Porto Alegre Aero-Porto

Current Time: Apr 19, 2015 at 3:29:52 PM

Latest Report: Apr 19, 2015 at 2:00 PM


Visibility: 10 mi

Pressure: 29.83 "Hg

Humidity: 58%

Dew point: 66 °F

Location of Porto AlegreLocation

Historic Weather in Porto Alegre — Graph

°F

Porto Alegre temperature yesterday

Maximum temperature yesterday: 77 °F (at 3:00 PM)
Minimum temperature yesterday: 61 °F (at 11:00 PM)
Average temperature yesterday: 70 °F

Past Weeks' High & Low Weather Summary

 TemperatureHumidityPressure
High90 °F (Apr 4, 3:00 PM)100% (Apr 5, 9:00 PM)30.15 "Hg (Apr 5, 9:00 PM)
Low55 °F (Apr 8, 5:00 AM)24% (Apr 12, 2:00 PM)29.74 "Hg (Apr 4, 3:00 PM)
Average71 °F78%29.98 "Hg
* Reported Apr 4 2:00 PM — Apr 19 2:00 PM, Porto Alegre, Weather by CustomWeather, © 2015

Note: Actual official high and low records may vary slightly from our data, if they occured in-between our weather recording intervals... More about our weather records

Advertising

Porto Alegre weather history for previous 24 hours

 ConditionsComfort  
Time TempWeatherWind HumidityBarometerVisibility
2:00 PM
Sun, Apr 19
82 °FSunny.6 mph58%29.83 "Hg10 mi
1:00 PM79 °FPassing clouds.5 mph65%29.89 "HgN/A
12:00 PM75 °FSunny.2 mph69%29.92 "Hg10 mi
11:00 AM68 °FScattered clouds.3 mph88%29.95 "HgN/A
10:00 AM66 °FScattered clouds.6 mph94%29.95 "Hg5 mi
9:00 AM63 °FMild.2 mph100%29.95 "Hg6 mi
8:00 AM59 °FSunny.2 mph100%29.92 "Hg10 mi
7:00 AM55 °FSleet. Light fog.3 mph100%29.92 "HgN/A
6:00 AM55 °FClear.1 mph100%29.89 "Hg4 mi
5:00 AM55 °FClear.3 mph100%29.89 "Hg4 mi
4:00 AM57 °FClear.1 mph100%29.89 "Hg4 mi
3:00 AM59 °FClear.5 mph100%29.92 "Hg5 mi
2:00 AM59 °FClear.3 mph94%29.92 "Hg10 mi
1:00 AM57 °FClear.2 mph100%29.92 "Hg10 mi
12:00 AM59 °FClear.2 mph100%29.92 "Hg10 mi
11:00 PM
Sat, Apr 18
61 °FClear.No wind94%29.95 "Hg10 mi
10:00 PM63 °FClear.5 mph88%29.95 "Hg10 mi
9:00 PM63 °FClear.2 mph88%29.95 "Hg10 mi
8:00 PM68 °FClear.2 mph73%29.95 "Hg10 mi
7:00 PM72 °FClear.6 mph57%29.92 "Hg10 mi
6:00 PM73 °FPassing clouds.6 mph57%29.92 "HgN/A
5:00 PM75 °FSunny.9 mph54%29.92 "Hg10 mi
4:00 PM77 °FPassing clouds.10 mph54%29.92 "HgN/A
3:00 PM77 °FScattered clouds.10 mph57%29.92 "HgN/A
Weather by CustomWeather, © 2015

See weather overviewHow to use our weather pages